Time,TemperatureF,DewpointF,PressureIn,WindDirection,WindDirectionDegrees,WindSpeedMPH,WindSpeedGustMPH,Humidity,HourlyPrecipIn,Conditions,Clouds,dailyrainin,SoftwareType,DateUTC
2013-01-12 00:03:00,56.3,56.0,30.15,NNW,329,4.0,6.0,100,0.01,,,0.01,weatherlink.com 1.10,2013-01-12 05:03:00,
2013-01-12 00:18:00,56.4,56.0,30.15,NNE,28,5.0,8.0,100,0.01,,,0.01,weatherlink.com 1.10,2013-01-12 05:18:00,
2013-01-12 00:33:00,56.4,56.0,30.14,WSW,250,7.0,8.0,100,0.01,,,0.01,weatherlink.com 1.10,2013-01-12 05:33:00,
2013-01-12 00:48:00,56.3,56.0,30.14,North,5,4.0,8.0,100,0.03,,,0.03,weatherlink.com 1.10,2013-01-12 05:48:00,
2013-01-12 01:03:00,56.3,56.0,30.14,NW,325,3.0,7.0,100,0.04,,,0.05,weatherlink.com 1.10,2013-01-12 06:03:00,
2013-01-12 01:18:00,56.3,56.0,30.13,North,5,6.0,6.0,100,0.04,,,0.05,weatherlink.com 1.10,2013-01-12 06:18:00,
2013-01-12 01:33:00,56.3,56.0,30.14,NNE,17,3.0,9.0,100,0.04,,,0.05,weatherlink.com 1.10,2013-01-12 06:33:00,
2013-01-12 01:48:00,56.2,56.0,30.14,NNW,331,6.0,7.0,100,0.02,,,0.06,weatherlink.com 1.10,2013-01-12 06:48:00,
2013-01-12 02:03:00,56.2,56.0,30.14,WSW,251,8.0,9.0,100,0.01,,,0.06,weatherlink.com 1.10,2013-01-12 07:03:00,
2013-01-12 02:18:00,56.1,56.0,30.14,SW,232,7.0,9.0,100,0.02,,,0.07,weatherlink.com 1.10,2013-01-12 07:18:00,
2013-01-12 02:33:00,56.4,56.0,30.14,WSW,242,9.0,16.0,100,0.02,,,0.07,weatherlink.com 1.10,2013-01-12 07:33:00,
2013-01-12 02:48:00,56.3,56.0,30.14,WSW,248,4.0,14.0,100,0.01,,,0.07,weatherlink.com 1.10,2013-01-12 07:48:00,
2013-01-12 03:03:00,56.3,56.0,30.14,SW,236,11.0,13.0,100,0.02,,,0.08,weatherlink.com 1.10,2013-01-12 08:03:00,
2013-01-12 03:18:00,56.3,56.0,30.14,West,269,10.0,12.0,100,0.01,,,0.08,weatherlink.com 1.10,2013-01-12 08:18:00,
2013-01-12 03:33:00,56.2,56.0,30.14,West,280,4.0,12.0,100,0.01,,,0.08,weatherlink.com 1.10,2013-01-12 08:33:00,
2013-01-12 03:48:00,56.2,56.0,30.13,WNW,286,5.0,15.0,100,0.01,,,0.08,weatherlink.com 1.10,2013-01-12 08:48:00,
2013-01-12 04:03:00,56.2,56.0,30.14,NW,326,3.0,14.0,100,0.00,,,0.08,weatherlink.com 1.10,2013-01-12 09:03:00,
2013-01-12 04:18:00,56.1,56.0,30.13,WSW,254,3.0,8.0,100,0.00,,,0.08,weatherlink.com 1.10,2013-01-12 09:18:00,
2013-01-12 04:33:00,56.1,56.0,30.13,WSW,252,5.0,10.0,100,0.00,,,0.08,weatherlink.com 1.10,2013-01-12 09:33:00,
2013-01-12 04:49:00,56.0,56.0,30.13,WSW,239,5.0,12.0,100,0.00,,,0.08,weatherlink.com 1.10,2013-01-12 09:49:00,
2013-01-12 04:55:00,56.0,56.0,30.13,West,264,6.0,6.0,100,0.00,,,0.08,Wunderground v.1.15,2013-01-12 09:55:00,
2013-01-12 05:00:00,56.0,56.0,30.13,SW,224,6.0,6.0,100,0.00,,,0.08,Wunderground v.1.15,2013-01-12 10:00:00,
2013-01-12 05:05:00,56.0,56.0,30.13,SW,236,6.0,6.0,100,0.00,,,0.08,Wunderground v.1.15,2013-01-12 10:05:00,
2013-01-12 05:10:00,56.0,56.0,30.13,North,5,6.0,6.0,100,0.00,,,0.08,Wunderground v.1.15,2013-01-12 10:10:00,
2013-01-12 05:19:00,56.0,56.0,30.13,SW,232,4.0,8.0,100,0.00,,,0.08,weatherlink.com 1.10,2013-01-12 10:19:00,
2013-01-12 05:25:00,56.0,56.0,30.13,WSW,239,5.0,5.0,100,0.00,,,0.08,Wunderground v.1.15,2013-01-12 10:25:00,
2013-01-12 05:35:00,56.0,56.0,30.12,West,265,3.0,7.0,100,0.00,,,0.08,weatherlink.com 1.10,2013-01-12 10:35:00,
2013-01-12 05:40:00,56.0,56.0,30.12,SW,219,4.0,4.0,100,0.00,,,0.08,Wunderground v.1.15,2013-01-12 10:40:00,
2013-01-12 05:50:00,55.9,56.0,30.12,SW,233,2.0,5.0,100,0.00,,,0.08,weatherlink.com 1.10,2013-01-12 10:50:00,
2013-01-12 05:55:00,55.9,55.9,30.12,SSW,212,2.0,3.0,100,0.00,,,0.08,Wunderground v.1.15,2013-01-12 10:55:00,
2013-01-12 06:00:00,55.9,55.9,30.13,SSW,209,1.0,1.0,100,0.00,,,0.08,Wunderground v.1.15,2013-01-12 11:00:00,
2013-01-12 06:10:00,55.9,55.9,30.12,SW,221,1.0,1.0,100,0.00,,,0.08,Wunderground v.1.15,2013-01-12 11:10:00,
2013-01-12 06:15:00,55.9,55.9,30.13,SSW,206,1.0,1.0,100,0.00,,,0.08,Wunderground v.1.15,2013-01-12 11:15:00,
2013-01-12 06:21:00,55.9,56.0,30.13,SW,236,3.0,4.0,100,0.00,,,0.08,weatherlink.com 1.10,2013-01-12 11:21:00,
2013-01-12 06:30:00,55.9,55.9,30.13,SSW,211,1.0,2.0,100,0.00,,,0.08,Wunderground v.1.15,2013-01-12 11:30:00,
2013-01-12 06:40:00,55.9,55.9,30.14,SSW,207,2.0,2.0,100,0.00,,,0.08,Wunderground v.1.15,2013-01-12 11:40:00,
2013-01-12 06:50:00,55.9,56.0,30.14,WSW,238,1.0,7.0,100,0.00,,,0.08,weatherlink.com 1.10,2013-01-12 11:50:00,
2013-01-12 07:00:00,56.0,56.0,30.14,SW,214,3.0,4.0,100,0.00,,,0.08,Wunderground v.1.15,2013-01-12 12:00:00,
2013-01-12 07:06:00,55.9,56.0,30.13,SW,215,5.0,7.0,100,0.00,,,0.08,weatherlink.com 1.10,2013-01-12 12:06:00,
2013-01-12 07:15:00,55.9,55.9,30.14,SSW,204,2.0,4.0,100,0.00,,,0.08,Wunderground v.1.15,2013-01-12 12:15:00,
2013-01-12 07:20:00,55.9,55.9,30.14,SW,221,3.0,8.0,100,0.00,,,0.08,Wunderground v.1.15,2013-01-12 12:20:00,
2013-01-12 07:30:00,56.1,56.1,30.14,WSW,243,5.0,6.0,100,0.00,,,0.08,Wunderground v.1.15,2013-01-12 12:30:00,
2013-01-12 07:36:00,56.3,56.0,30.14,WNW,288,5.0,13.0,100,0.00,,,0.08,weatherlink.com 1.10,2013-01-12 12:36:00,
2013-01-12 07:45:00,56.3,56.0,30.14,WSW,240,6.0,8.0,99,0.00,,,0.08,Wunderground v.1.15,2013-01-12 12:45:00,
2013-01-12 07:50:00,56.5,56.2,30.14,SW,221,7.0,10.0,99,0.00,,,0.08,Wunderground v.1.15,2013-01-12 12:50:00,
2013-01-12 08:00:00,56.8,56.0,30.14,WSW,237,7.0,7.0,97,0.00,,,0.08,Wunderground v.1.15,2013-01-12 13:00:00,
2013-01-12 08:06:00,56.8,56.0,30.14,West,261,6.0,15.0,97,0.00,,,0.08,weatherlink.com 1.10,2013-01-12 13:06:00,
2013-01-12 08:15:00,56.8,56.0,30.15,SW,234,7.0,10.0,97,0.00,,,0.08,Wunderground v.1.15,2013-01-12 13:15:00,
2013-01-12 08:20:00,56.7,55.9,30.15,WSW,244,7.0,7.0,97,0.00,,,0.08,Wunderground v.1.15,2013-01-12 13:20:00,
2013-01-12 08:30:00,56.6,56.0,30.16,WSW,240,4.0,4.0,98,0.00,,,0.08,Wunderground v.1.15,2013-01-12 13:30:00,
2013-01-12 08:37:00,56.5,56.0,30.16,WSW,242,1.0,5.0,98,0.00,,,0.08,weatherlink.com 1.10,2013-01-12 13:37:00,
2013-01-12 08:45:00,56.5,55.9,30.16,West,268,2.0,3.0,98,0.00,,,0.08,Wunderground v.1.15,2013-01-12 13:45:00,
2013-01-12 08:52:00,56.7,56.0,30.16,NW,310,0.0,4.0,98,0.00,,,0.08,weatherlink.com 1.10,2013-01-12 13:52:00,
2013-01-12 09:00:00,56.9,56.1,30.16,NW,321,1.0,1.0,97,0.00,,,0.08,Wunderground v.1.15,2013-01-12 14:00:00,
2013-01-12 09:07:00,57.1,56.0,30.16,WSW,254,1.0,3.0,97,0.00,,,0.08,weatherlink.com 1.10,2013-01-12 14:07:00,
2013-01-12 09:15:00,57.3,56.5,30.16,West,273,3.0,3.0,97,0.00,,,0.08,Wunderground v.1.15,2013-01-12 14:15:00,
2013-01-12 09:20:00,57.4,56.6,30.16,NW,307,2.0,2.0,97,0.00,,,0.08,Wunderground v.1.15,2013-01-12 14:20:00,
2013-01-12 09:30:00,57.5,56.7,30.17,NW,307,1.0,2.0,97,0.00,,,0.08,Wunderground v.1.15,2013-01-12 14:30:00,
2013-01-12 09:35:00,57.5,56.7,30.17,WSW,258,2.0,2.0,97,0.00,,,0.08,Wunderground v.1.15,2013-01-12 14:35:00,
2013-01-12 09:40:00,57.5,56.7,30.17,WNW,295,2.0,2.0,97,0.00,,,0.08,Wunderground v.1.15,2013-01-12 14:40:00,
2013-01-12 09:50:00,57.6,56.8,30.17,West,279,2.0,2.0,97,0.00,,,0.08,Wunderground v.1.15,2013-01-12 14:50:00,
2013-01-12 10:00:00,57.7,56.3,30.17,WNW,303,3.0,3.0,95,0.00,,,0.08,Wunderground v.1.15,2013-01-12 15:00:00,
2013-01-12 10:05:00,57.7,56.3,30.18,WNW,286,3.0,3.0,95,0.00,,,0.08,Wunderground v.1.15,2013-01-12 15:05:00,
2013-01-12 10:10:00,57.8,56.7,30.17,WNW,286,1.0,1.0,96,0.00,,,0.08,Wunderground v.1.15,2013-01-12 15:10:00,
2013-01-12 10:20:00,57.8,56.4,30.17,West,275,1.0,1.0,95,0.00,,,0.08,Wunderground v.1.15,2013-01-12 15:20:00,
2013-01-12 10:26:00,57.9,57.0,30.17,West,275,1.0,3.0,96,0.00,,,0.08,weatherlink.com 1.10,2013-01-12 15:26:00,
2013-01-12 10:35:00,57.8,56.4,30.17,West,263,1.0,1.0,95,0.00,,,0.08,Wunderground v.1.15,2013-01-12 15:35:00,
2013-01-12 10:45:00,57.9,56.8,30.17,SW,229,1.0,3.0,96,0.00,,,0.08,Wunderground v.1.15,2013-01-12 15:45:00,
2013-01-12 10:50:00,58.0,56.6,30.17,SW,229,1.0,1.0,95,0.00,,,0.08,Wunderground v.1.15,2013-01-12 15:50:00,
2013-01-12 10:56:00,57.9,57.0,30.16,SW,232,0.0,3.0,95,0.00,,,0.08,weatherlink.com 1.10,2013-01-12 15:56:00,
2013-01-12 11:05:00,58.0,56.3,30.16,SW,236,1.0,1.0,94,0.00,,,0.08,Wunderground v.1.15,2013-01-12 16:05:00,
2013-01-12 11:10:00,58.1,56.4,30.16,NNE,28,1.0,1.0,94,0.00,,,0.08,Wunderground v.1.15,2013-01-12 16:10:00,
2013-01-12 11:20:00,58.4,57.0,30.15,NNE,28,0.0,0.0,95,0.00,,,0.08,Wunderground v.1.15,2013-01-12 16:20:00,
2013-01-12 11:30:00,59.0,57.9,30.14,NNE,28,0.0,0.0,96,0.00,,,0.08,Wunderground v.1.15,2013-01-12 16:30:00,
2013-01-12 11:35:00,59.3,58.2,30.14,NNE,28,0.0,0.0,96,0.00,,,0.08,Wunderground v.1.15,2013-01-12 16:35:00,
2013-01-12 11:40:00,59.5,57.8,30.14,WSW,248,0.0,3.0,94,0.00,,,0.08,Wunderground v.1.15,2013-01-12 16:40:00,
2013-01-12 11:50:00,60.4,57.1,30.13,NNW,342,1.0,2.0,89,0.00,,,0.08,Wunderground v.1.15,2013-01-12 16:50:00,
2013-01-12 11:56:00,60.6,57.0,30.13,NNW,347,0.0,3.0,88,0.00,,,0.08,weatherlink.com 1.10,2013-01-12 16:56:00,
2013-01-12 12:09:00,60.7,57.0,30.12,SW,214,0.0,5.0,88,0.00,,,0.08,weatherlink.com 1.10,2013-01-12 17:09:00,
2013-01-12 12:15:00,60.7,58.1,30.12,WSW,248,1.0,1.0,91,0.00,,,0.08,Wunderground v.1.15,2013-01-12 17:15:00,
2013-01-12 12:20:00,60.6,56.7,30.12,SW,219,1.0,4.0,87,0.00,,,0.08,Wunderground v.1.15,2013-01-12 17:20:00,
2013-01-12 12:25:00,60.5,56.6,30.12,SW,229,3.0,4.0,87,0.00,,,0.08,Wunderground v.1.15,2013-01-12 17:25:00,
2013-01-12 12:30:00,60.5,56.6,30.12,SW,234,3.0,5.0,87,0.00,,,0.08,Wunderground v.1.15,2013-01-12 17:30:00,
2013-01-12 12:39:00,60.6,57.0,30.11,WSW,254,2.0,7.0,87,0.00,,,0.08,weatherlink.com 1.10,2013-01-12 17:39:00,
2013-01-12 12:45:00,60.6,57.0,30.11,SW,231,1.0,4.0,88,0.00,,,0.08,Wunderground v.1.15,2013-01-12 17:45:00,
2013-01-12 12:50:00,60.5,56.0,30.10,SW,231,1.0,1.0,85,0.00,,,0.08,Wunderground v.1.15,2013-01-12 17:50:00,
2013-01-12 12:55:00,60.5,56.9,30.10,WSW,238,1.0,2.0,88,0.00,,,0.08,Wunderground v.1.15,2013-01-12 17:55:00,
2013-01-12 13:05:00,60.6,56.1,30.10,SW,234,3.0,3.0,85,0.00,,,0.08,Wunderground v.1.15,2013-01-12 18:05:00,
2013-01-12 13:10:00,60.7,57.0,30.10,WSW,248,0.0,8.0,86,0.00,,,0.08,weatherlink.com 1.10,2013-01-12 18:10:00,
2013-01-12 13:20:00,61.2,57.0,30.09,SW,229,1.0,1.0,86,0.00,,,0.08,Wunderground v.1.15,2013-01-12 18:20:00,
2013-01-12 13:26:00,61.7,58.0,30.09,West,266,2.0,4.0,87,0.00,,,0.08,weatherlink.com 1.10,2013-01-12 18:26:00,
2013-01-12 13:35:00,62.1,56.9,30.09,SW,225,2.0,4.0,83,0.00,,,0.08,Wunderground v.1.15,2013-01-12 18:35:00,
2013-01-12 13:43:00,62.1,58.0,30.09,WSW,258,1.0,5.0,87,0.00,,,0.08,weatherlink.com 1.10,2013-01-12 18:43:00,
2013-01-12 13:50:00,62.4,57.2,30.08,NNW,336,2.0,2.0,83,0.00,,,0.08,Wunderground v.1.15,2013-01-12 18:50:00,
2013-01-12 13:56:00,62.3,57.0,30.08,WSW,258,2.0,4.0,84,0.00,,,0.08,weatherlink.com 1.10,2013-01-12 18:56:00,
2013-01-12 14:05:00,62.1,57.5,30.08,WNW,297,2.0,2.0,85,0.00,,,0.08,Wunderground v.1.15,2013-01-12 19:05:00,
2013-01-12 14:10:00,62.1,57.5,30.08,WSW,242,2.0,2.0,85,0.00,,,0.08,Wunderground v.1.15,2013-01-12 19:10:00,
2013-01-12 14:20:00,62.3,58.1,30.08,NW,324,1.0,1.0,86,0.00,,,0.08,Wunderground v.1.15,2013-01-12 19:20:00,
2013-01-12 14:26:00,62.3,58.0,30.08,SW,224,4.0,4.0,86,0.00,,,0.08,weatherlink.com 1.10,2013-01-12 19:26:00,
2013-01-12 14:35:00,62.2,57.6,30.08,West,274,1.0,1.0,85,0.00,,,0.08,Wunderground v.1.15,2013-01-12 19:35:00,
2013-01-12 14:40:00,62.3,57.7,30.08,West,274,1.0,1.0,85,0.00,,,0.08,Wunderground v.1.15,2013-01-12 19:40:00,
2013-01-12 14:50:00,62.3,58.1,30.08,WSW,258,1.0,1.0,86,0.00,,,0.08,Wunderground v.1.15,2013-01-12 19:50:00,
2013-01-12 14:56:00,62.2,58.0,30.08,SW,234,2.0,5.0,87,0.00,,,0.08,weatherlink.com 1.10,2013-01-12 19:56:00,
2013-01-12 15:05:00,62.4,58.5,30.08,West,259,1.0,1.0,87,0.00,,,0.08,Wunderground v.1.15,2013-01-12 20:05:00,
2013-01-12 15:10:00,62.5,57.9,30.08,West,274,1.0,2.0,85,0.00,,,0.08,Wunderground v.1.15,2013-01-12 20:10:00,
2013-01-12 15:15:00,62.7,58.8,30.08,West,271,1.0,2.0,87,0.00,,,0.08,Wunderground v.1.15,2013-01-12 20:15:00,
2013-01-12 15:20:00,62.9,58.6,30.08,West,277,1.0,1.0,86,0.00,,,0.08,Wunderground v.1.15,2013-01-12 20:20:00,
2013-01-12 15:27:00,63.4,60.0,30.07,SW,215,6.0,7.0,87,0.00,,,0.08,weatherlink.com 1.10,2013-01-12 20:27:00,
2013-01-12 15:35:00,62.8,58.2,30.07,WNW,298,2.0,2.0,85,0.00,,,0.08,Wunderground v.1.15,2013-01-12 20:35:00,
2013-01-12 15:42:00,62.3,57.0,30.07,SW,229,1.0,6.0,84,0.00,,,0.08,weatherlink.com 1.10,2013-01-12 20:42:00,
2013-01-12 15:50:00,61.8,56.6,30.07,WSW,254,3.0,3.0,83,0.00,,,0.08,Wunderground v.1.15,2013-01-12 20:50:00,
2013-01-12 15:58:00,61.5,56.0,30.07,NW,321,1.0,6.0,82,0.00,,,0.08,weatherlink.com 1.10,2013-01-12 20:58:00,
2013-01-12 16:05:00,61.2,55.7,30.07,WNW,286,2.0,4.0,82,0.00,,,0.08,Wunderground v.1.15,2013-01-12 21:05:00,
2013-01-12 16:10:00,61.0,55.1,30.07,NNW,345,3.0,3.0,81,0.00,,,0.08,Wunderground v.1.15,2013-01-12 21:10:00,
2013-01-12 16:20:00,61.0,56.1,30.07,North,360,2.0,2.0,84,0.00,,,0.08,Wunderground v.1.15,2013-01-12 21:20:00,
2013-01-12 16:27:00,60.8,55.0,30.07,North,355,2.0,6.0,80,0.00,,,0.08,weatherlink.com 1.10,2013-01-12 21:27:00,
2013-01-12 16:35:00,60.4,53.9,30.07,North,5,2.0,3.0,79,0.00,,,0.08,Wunderground v.1.15,2013-01-12 21:35:00,
2013-01-12 16:40:00,60.4,54.2,30.07,NNW,327,1.0,1.0,80,0.00,,,0.08,Wunderground v.1.15,2013-01-12 21:40:00,
2013-01-12 16:45:00,60.4,54.2,30.07,ENE,66,1.0,1.0,80,0.00,,,0.08,Wunderground v.1.15,2013-01-12 21:45:00,
2013-01-12 16:50:00,60.3,53.4,30.07,NE,36,1.0,2.0,78,0.00,,,0.08,Wunderground v.1.15,2013-01-12 21:50:00,
2013-01-12 16:58:00,60.3,54.0,30.06,NE,44,0.0,4.0,80,0.00,,,0.08,weatherlink.com 1.10,2013-01-12 21:58:00,
2013-01-12 17:05:00,60.2,53.7,30.06,NE,44,0.0,2.0,79,0.00,,,0.08,Wunderground v.1.15,2013-01-12 22:05:00,
2013-01-12 17:10:00,60.0,53.5,30.06,NE,44,1.0,1.0,79,0.00,,,0.08,Wunderground v.1.15,2013-01-12 22:10:00,
2013-01-12 17:28:00,59.2,54.0,30.06,NE,42,4.0,4.0,82,0.00,,,0.08,weatherlink.com 1.10,2013-01-12 22:28:00,
2013-01-12 17:58:00,57.2,54.0,30.07,NE,44,2.0,6.0,88,0.00,,,0.08,weatherlink.com 1.10,2013-01-12 22:58:00,
2013-01-12 18:13:00,56.7,54.0,30.06,NE,42,2.0,4.0,89,0.00,,,0.08,weatherlink.com 1.10,2013-01-12 23:13:00,
2013-01-12 18:43:00,55.7,53.0,30.07,NE,48,2.0,4.0,90,0.00,,,0.08,weatherlink.com 1.10,2013-01-12 23:43:00,
2013-01-12 18:58:00,55.2,53.0,30.07,NE,47,2.0,4.0,91,0.00,,,0.08,weatherlink.com 1.10,2013-01-12 23:58:00,
2013-01-12 19:13:00,55.0,53.0,30.07,NE,56,2.0,6.0,91,0.00,,,0.08,weatherlink.com 1.10,2013-01-13 00:13:00,
2013-01-12 19:28:00,54.9,52.0,30.07,NE,49,0.0,3.0,91,0.00,,,0.08,weatherlink.com 1.10,2013-01-13 00:28:00,
2013-01-12 19:43:00,54.8,53.0,30.07,NE,51,0.0,3.0,92,0.00,,,0.08,weatherlink.com 1.10,2013-01-13 00:43:00,
2013-01-12 19:58:00,54.6,52.0,30.07,NE,49,4.0,5.0,92,0.00,,,0.08,weatherlink.com 1.10,2013-01-13 00:58:00,
2013-01-12 20:13:00,54.4,52.0,30.07,NNE,30,3.0,5.0,92,0.00,,,0.08,weatherlink.com 1.10,2013-01-13 01:13:00,
2013-01-12 20:28:00,54.4,52.0,30.07,NNE,23,2.0,5.0,92,0.00,,,0.08,weatherlink.com 1.10,2013-01-13 01:28:00,
2013-01-12 20:43:00,54.6,52.0,30.07,ENE,62,1.0,5.0,91,0.00,,,0.08,weatherlink.com 1.10,2013-01-13 01:43:00,
2013-01-12 20:58:00,54.6,52.0,30.07,ENE,65,2.0,9.0,91,0.00,,,0.08,weatherlink.com 1.10,2013-01-13 01:58:00,
2013-01-12 21:13:00,54.9,52.0,30.08,NNE,31,1.0,5.0,90,0.00,,,0.08,weatherlink.com 1.10,2013-01-13 02:13:00,
2013-01-12 21:28:00,54.9,52.0,30.07,NNE,22,1.0,6.0,90,0.00,,,0.08,weatherlink.com 1.10,2013-01-13 02:28:00,
2013-01-12 21:43:00,55.1,53.0,30.06,North,5,1.0,6.0,91,0.00,,,0.08,weatherlink.com 1.10,2013-01-13 02:43:00,
2013-01-12 21:58:00,55.2,53.0,30.07,NNW,339,2.0,5.0,91,0.00,,,0.08,weatherlink.com 1.10,2013-01-13 02:58:00,
2013-01-12 22:13:00,55.2,53.0,30.06,North,9,2.0,5.0,91,0.00,,,0.08,weatherlink.com 1.10,2013-01-13 03:13:00,
2013-01-12 22:28:00,55.1,53.0,30.06,North,5,1.0,6.0,92,0.00,,,0.08,weatherlink.com 1.10,2013-01-13 03:28:00,
2013-01-12 22:43:00,55.0,53.0,30.06,ENE,62,2.0,5.0,92,0.00,,,0.08,weatherlink.com 1.10,2013-01-13 03:43:00,
2013-01-12 22:58:00,54.9,53.0,30.06,NNE,23,1.0,3.0,92,0.00,,,0.08,weatherlink.com 1.10,2013-01-13 03:58:00,
2013-01-12 23:13:00,54.8,53.0,30.05,North,5,1.0,4.0,92,0.00,,,0.08,weatherlink.com 1.10,2013-01-13 04:13:00,
2013-01-12 23:28:00,54.8,53.0,30.05,NNW,336,2.0,5.0,92,0.00,,,0.08,weatherlink.com 1.10,2013-01-13 04:28:00,
2013-01-12 23:43:00,54.8,53.0,30.06,SW,235,1.0,10.0,92,0.00,,,0.08,weatherlink.com 1.10,2013-01-13 04:43:00,
2013-01-12 23:58:00,54.8,53.0,30.06,NW,306,2.0,8.0,93,0.00,,,0.08,weatherlink.com 1.10,2013-01-13 04:58:00,